ST-2

Last updated on Thu Oct 30 2025 00:02:48 GMT+0000 (Coordinated Universal Time)

1 37606U 11022B 25302.41717074 -.00000201 00000+0 00000+0 0 9993 2 37606 0.0141 257.3527 0001915 356.8299 22.0297 1.00268352 52960
UTC large
Height (km)
Speed (km/s)
/
Latitude / Longitude
Inclination (degrees)
Orbital Period (minutes)
Azimuth
Elevation
Range (km)
Doppler Factor

Next 0 passes for location: London (51.5072 / 0.1276)

Sorry there are no passes over London.